User: anonymous   Login
Location: Unspecified
(0.0000°N, 0.0000°E)
Time: 15:44:25
(UTC+00:00)
Language:

TYVAK-61C - Orbit

View from above orbital plane
View from above orbital plane
View from above satellite
View from above satellite

Ground track
Ground track

The orbit data is extracted from the following two-line orbital elements,

1 43144U 18004AK  22279.77861115  .00057353  00000-0  13697-2 0  9998
2 43144  97.3751   1.4395 0004421 326.4744  33.6222 15.41316312263784
Epoch (UTC): 06 October 2022 18:41:12
Eccentricity: 0.0004421
inclination: 97.3751°
perigee height: 439 km
apogee height: 445 km
right ascension of ascending node: 1.4395°
argument of perigee: 326.4744°
revolutions per day: 15.41316312
mean anomaly at epoch: 33.6222°
orbit number at epoch: 26378

The dashed part of the orbit path shows where the satellite is in the earth's shadow,  

DLR